,

(GMT )
Uppsala

Weather History for ESCM - August, 2019

Change the Weather History Date:

Sunday, August 25, 2019

  Actual Average (WUND) Record (WUND)
Temperature  
Mean Temperature 63 °F -  
Max Temperature 75 °F - - (-1)
Min Temperature 51 °F - - (-1)
Degree Days  
Heating Degree Days 2    
Growing Degree Days 13 (Base 50)    
Moisture  
Dew Point 58 °F    
Average Humidity 83    
Maximum Humidity 100    
Minimum Humidity 56    
Precipitation  
Precipitation 0.00 in - - ()
Sea Level Pressure  
Sea Level Pressure 30.27 in    
Wind  
Wind Speed 5 mph ()    
Max Wind Speed 13 mph    
Max Gust Speed 21 mph    
Visibility 7.3 miles    
Events      
Averages and records for this station are not official NWS values.
T = Trace of Precipitation, MM = Missing Value Source: Averaged Metar Reports

Daily Weather History Graph

Daily Weather History Graph

Search for Another Location

Airport or City:

Astronomy

Aug. 25, 2019 Rise Set
Actual Time 5:27 AM CEST 8:14 PM CEST
Civil Twilight 4:40 AM CEST 9:01 PM CEST
Nautical Twilight 3:35 AM CEST 10:04 PM CEST
Astronomical Twilight 1:56 AM CEST 11:39 PM CEST
Moon 11:39 PM CEST (8/25) 5:13 PM CEST (8/25)
Length of Visible Light 16h 21m
Length of Day
14h 47m
Waning Crescent, 32% of the Moon is Illuminated
Aug 25
Waning Crescent
Aug 30
New
Sep 6
First Quarter
Sep 14
Full
Sep 22
Last Quarter

Hourly Weather History & Observations

Time (CEST) Temp. Dew Point Humidity Pressure Visibility Wind Dir Wind Speed Gust Speed Precip Events Conditions
12:00 AM 54 °F 52 °F 91% 30.32 in 28 mi Calm Calm - -  
1:20 AM 51.8 °F 51.8 °F 100% 30.33 in 6.2 mi Calm Calm - N/A   Unknown
1:50 AM 53.6 °F 51.8 °F 94% 30.33 in 6.2 mi South 1.2 mph - N/A   Unknown
2:00 AM 52 °F 52 °F 99% 30.33 in 8 mi South 2.2 mph - -  
2:20 AM 53.6 °F 53.6 °F 100% 30.30 in 6.2 mi SSE 2.3 mph - N/A   Unknown
3:00 AM 53 °F 53 °F 99% 30.33 in 6 mi South 4.5 mph - -   Mist
3:20 AM 53.6 °F 53.6 °F 100% 30.30 in 5.6 mi SSE 3.5 mph - N/A   Mostly Cloudy
4:00 AM 53 °F 53 °F 100% 30.33 in 7 mi South 2.2 mph - -  
4:20 AM 55.4 °F 55.4 °F 100% 30.30 in 6.2 mi SSE 3.5 mph - N/A   Overcast
4:50 AM 55.4 °F 55.4 °F 100% 30.30 in 6.2 mi South 4.6 mph - N/A   Scattered Clouds
5:20 AM 55.4 °F 55.4 °F 100% 30.30 in 6.2 mi South 4.6 mph - N/A   Unknown
5:50 AM 55.4 °F 55.4 °F 100% 30.30 in 5.0 mi SSE 2.3 mph - N/A   Mist
6:20 AM 53.6 °F 53.6 °F 100% 30.30 in 6.2 mi SSE 3.5 mph - N/A   Unknown
7:00 AM 58 °F 58 °F 98% 30.32 in 10 mi SSE 4.5 mph - -  
7:20 AM 59.0 °F 59.0 °F 100% 30.30 in 6.2 mi SSE 4.6 mph - N/A   Unknown
8:00 AM 61 °F 59 °F 92% 30.31 in 19 mi South 6.7 mph - -  
8:20 AM 60.8 °F 59.0 °F 94% 30.30 in 6.2 mi South 8.1 mph - N/A   Unknown
8:50 AM 62.6 °F 59.0 °F 88% 30.30 in 6.2 mi South 6.9 mph - N/A   Unknown
9:00 AM 64 °F 60 °F 82% 30.31 in 19 mi South 6.7 mph - -  
9:20 AM 64.4 °F 59.0 °F 83% 30.30 in 6.2 mi SSW 8.1 mph - N/A   Unknown
9:50 AM 66.2 °F 59.0 °F 78% 30.30 in 6.2 mi South 10.4 mph - N/A   Partly Cloudy
10:20 AM 66.2 °F 60.8 °F 83% 30.30 in 6.2 mi South 9.2 mph - N/A   Mostly Cloudy
11:20 AM 68.0 °F 60.8 °F 78% 30.27 in 6.2 mi South 9.2 mph - N/A   Partly Cloudy
12:20 PM 69.8 °F 60.8 °F 73% 30.27 in 6.2 mi South 11.5 mph - N/A   Partly Cloudy
12:50 PM 71.6 °F 60.8 °F 69% 30.27 in 6.2 mi SSW 9.2 mph 20.7 mph N/A   Partly Cloudy
1:20 PM 73.4 °F 60.8 °F 65% 30.24 in 6.2 mi SSW 10.4 mph - N/A   Partly Cloudy
2:00 PM 74 °F 62 °F 56% 30.26 in 19 mi SSW 8.9 mph - -  
2:20 PM 73.4 °F 60.8 °F 65% 30.24 in 6.2 mi South 10.4 mph - N/A   Partly Cloudy
2:50 PM 75.2 °F 60.8 °F 61% 30.24 in 6.2 mi SW 9.2 mph - N/A   Scattered Clouds
3:20 PM 75.2 °F 60.8 °F 61% 30.24 in 6.2 mi SSW 11.5 mph - N/A   Partly Cloudy
3:50 PM 75.2 °F 60.8 °F 61% 30.21 in 6.2 mi South 12.7 mph - N/A   Unknown
5:20 PM 75.2 °F 60.8 °F 61% 30.21 in 6.2 mi South 11.5 mph - N/A   Unknown
5:50 PM 73.4 °F 60.8 °F 65% 30.21 in 6.2 mi South 10.4 mph - N/A   Unknown
6:00 PM 73 °F 61 °F 58% 30.22 in 28 mi South 8.9 mph - -  
6:50 PM 71.6 °F 60.8 °F 69% 30.21 in 6.2 mi South 9.2 mph - N/A   Unknown
7:20 PM 71.6 °F 60.8 °F 69% 30.21 in 6.2 mi SSW 8.1 mph - N/A   Partly Cloudy
7:50 PM 69.8 °F 62.6 °F 78% 30.21 in 6.2 mi South 9.2 mph - N/A   Unknown
8:00 PM 69 °F 62 °F 71% 30.22 in 28 mi SSW 6.7 mph - -  
9:00 PM 67 °F 61 °F 75% 30.22 in 28 mi SSW 11.2 mph - -  
9:20 PM 66.2 °F 60.8 °F 83% 30.21 in 6.2 mi SSW 8.1 mph - N/A   Unknown
9:50 PM 64.4 °F 60.8 °F 88% 30.21 in 6.2 mi SSW 8.1 mph - N/A   Unknown
10:00 PM 65 °F 60 °F 78% 30.23 in 28 mi SSW 8.9 mph - -  
10:20 PM 64.4 °F 59.0 °F 83% 30.21 in 6.2 mi SSW 5.8 mph - N/A   Unknown
10:50 PM 62.6 °F 59.0 °F 88% 30.21 in 6.2 mi SSW 6.9 mph - N/A   Unknown
11:50 PM 62.6 °F 59.0 °F 88% 30.21 in 6.2 mi SSW 3.5 mph - N/A   Unknown